Year,Month,Day,Hour,Minute,Value (Times are PST for temperature in C)
2013,08,11,10,19,18.90
2013,08,11,10,20,18.90
2013,08,11,10,21,19.00
2013,08,11,10,22,19.00
2013,08,11,10,23,19.00
2013,08,11,10,24,19.10
2013,08,11,10,25,19.10
2013,08,11,10,26,19.10
2013,08,11,10,27,19.20
2013,08,11,10,28,19.20
2013,08,11,10,29,19.20
2013,08,11,10,30,19.20
2013,08,11,10,31,19.20
2013,08,11,10,32,19.20
2013,08,11,10,33,19.20
2013,08,11,10,34,19.20
2013,08,11,10,35,19.20
2013,08,11,10,36,19.20
2013,08,11,10,37,19.20
2013,08,11,10,38,19.20
2013,08,11,10,39,19.20
2013,08,11,10,40,19.20
2013,08,11,10,41,19.20
2013,08,11,10,42,19.20
2013,08,11,10,43,19.20
2013,08,11,10,44,19.20
2013,08,11,10,45,19.20
2013,08,11,10,46,19.20
2013,08,11,10,47,19.20
2013,08,11,10,48,19.20
2013,08,11,10,49,19.20
2013,08,11,10,50,19.20
2013,08,11,10,51,19.20
2013,08,11,10,52,19.20
2013,08,11,10,53,19.20
2013,08,11,10,54,19.20
2013,08,11,11,28,18.20
2013,08,11,11,29,18.20
2013,08,11,11,30,18.10
2013,08,11,11,31,18.10
2013,08,11,11,32,18.10
2013,08,11,11,33,18.10
2013,08,11,11,34,18.20
2013,08,11,11,35,18.20
2013,08,11,11,36,18.20
2013,08,11,11,37,18.20
2013,08,11,11,38,18.30
2013,08,11,11,39,18.30
2013,08,11,11,40,18.30
2013,08,11,11,41,18.30
2013,08,11,11,42,18.30
2013,08,11,11,43,18.30
2013,08,11,11,44,18.30
2013,08,11,11,45,18.40
2013,08,11,11,46,18.40
2013,08,11,11,47,18.40
2013,08,11,11,48,18.40
2013,08,11,11,49,18.50
2013,08,11,11,50,18.60
2013,08,11,11,51,18.60
2013,08,11,11,52,18.70
2013,08,11,11,53,18.70
2013,08,11,11,54,18.80
2013,08,11,11,55,18.80
2013,08,11,11,56,18.80
2013,08,11,11,57,18.80
2013,08,11,11,58,18.80
2013,08,11,11,59,18.80
2013,08,11,12,00,18.80
2013,08,11,12,01,18.80
2013,08,11,12,02,18.80
2013,08,11,12,03,18.80
2013,08,11,12,04,18.80
2013,08,11,12,05,18.90
2013,08,11,12,06,18.80
2013,08,11,12,07,18.80
2013,08,11,12,08,18.80
2013,08,11,12,09,18.80
2013,08,11,12,10,18.80
2013,08,11,12,11,18.80
2013,08,11,12,12,18.90
2013,08,11,12,13,18.90
2013,08,11,12,14,18.90
2013,08,11,12,15,18.90
2013,08,11,12,16,18.80
2013,08,11,12,17,18.80
2013,08,11,12,18,18.80
2013,08,11,12,19,18.90
2013,08,11,12,20,18.90
2013,08,11,12,21,18.90
2013,08,11,12,22,18.90
2013,08,11,12,23,18.90
2013,08,11,12,24,18.90
2013,08,11,12,25,18.90
2013,08,11,12,26,18.90
2013,08,11,12,27,18.90
2013,08,11,12,28,18.90
2013,08,11,12,29,18.90
2013,08,11,12,30,18.90
2013,08,11,12,31,18.90
2013,08,11,12,32,18.80
2013,08,11,12,33,18.80
2013,08,11,12,34,18.80
2013,08,11,12,35,18.80
2013,08,11,12,36,18.80
2013,08,11,12,37,18.80
2013,08,11,12,38,18.80
2013,08,11,12,39,18.80
2013,08,11,12,40,18.80
2013,08,11,12,41,18.80
2013,08,11,12,42,18.80
2013,08,11,12,43,18.80
2013,08,11,12,44,18.80
2013,08,11,12,45,18.80
2013,08,11,12,46,18.80
2013,08,11,12,47,18.80
2013,08,11,12,48,18.80
2013,08,11,12,49,18.80
2013,08,11,12,50,18.80
2013,08,11,13,40,18.40
2013,08,11,13,41,18.40
2013,08,11,13,42,18.40
2013,08,11,13,43,18.40
2013,08,11,13,44,18.40
2013,08,11,13,45,18.40
2013,08,11,13,46,18.40
2013,08,11,13,47,18.30
2013,08,11,13,48,18.30
2013,08,11,13,49,18.30
2013,08,11,13,50,18.30
2013,08,11,13,51,18.30
2013,08,11,13,52,18.20
2013,08,11,13,53,18.20
2013,08,11,13,54,18.20
2013,08,11,13,55,18.20
2013,08,11,13,56,18.20
2013,08,11,13,57,18.20
2013,08,11,13,58,18.20
2013,08,11,13,59,18.20
2013,08,11,14,00,18.20
2013,08,11,14,01,18.20
2013,08,11,14,02,18.20
2013,08,11,14,03,18.30
2013,08,11,14,04,18.30
2013,08,11,14,05,18.30
2013,08,11,14,06,18.30
2013,08,11,14,07,18.30
2013,08,11,14,08,18.30
2013,08,11,14,09,18.30
2013,08,11,14,10,18.30
2013,08,11,14,11,18.30
2013,08,11,14,12,18.30
2013,08,11,14,13,18.30
2013,08,11,14,14,18.30
2013,08,11,14,15,18.30
2013,08,11,14,16,18.30
2013,08,11,15,40,17.10
2013,08,11,15,41,17.10
2013,08,11,15,42,17.10
2013,08,11,15,43,17.20
2013,08,11,15,44,17.20
2013,08,11,15,45,17.20
2013,08,11,15,46,17.20
2013,08,11,15,47,17.30
2013,08,11,15,48,17.30
2013,08,11,15,49,17.30
2013,08,11,15,50,17.30
2013,08,11,15,51,17.40
2013,08,11,15,52,17.40
2013,08,11,15,53,17.50
2013,08,11,15,54,17.50
2013,08,11,15,55,17.50
2013,08,11,15,56,17.50
2013,08,11,15,57,17.50
2013,08,11,15,58,17.50
2013,08,11,15,59,17.60
2013,08,11,16,00,17.50
2013,08,11,16,01,17.50
2013,08,11,16,02,17.50
2013,08,11,16,03,17.60
2013,08,11,16,04,17.60
2013,08,11,16,05,17.60
2013,08,11,16,06,17.60
2013,08,11,16,07,17.60
2013,08,11,16,08,17.60
2013,08,11,16,09,17.60
2013,08,11,16,10,17.70
2013,08,11,16,11,17.70
2013,08,11,16,12,17.60
2013,08,11,16,13,17.60
2013,08,11,16,14,17.70
2013,08,11,16,15,17.70
2013,08,11,16,16,17.70
2013,08,11,16,17,17.70
2013,08,11,16,18,17.80
2013,08,11,16,19,17.80
2013,08,11,16,20,17.80
2013,08,11,16,21,17.80
2013,08,11,16,22,17.80
2013,08,11,16,23,17.80
2013,08,11,16,24,17.80
2013,08,11,16,25,17.80
2013,08,11,16,26,17.80
2013,08,11,16,27,17.80
2013,08,11,16,28,17.80
2013,08,11,16,29,17.80
2013,08,11,16,30,17.80
2013,08,11,16,31,17.80
2013,08,11,16,32,17.80
2013,08,11,16,33,17.80
2013,08,11,16,34,17.80
2013,08,11,16,35,17.80
2013,08,11,16,36,17.80
2013,08,11,16,37,17.90
2013,08,11,16,38,17.90
2013,08,11,16,39,17.90
2013,08,11,16,40,17.90
2013,08,11,16,41,18.00
2013,08,11,16,42,18.00
2013,08,11,16,43,18.00
2013,08,11,16,44,18.00
2013,08,11,16,45,18.00
2013,08,11,16,46,18.10
2013,08,11,16,47,18.00
2013,08,11,16,48,18.10
2013,08,11,16,49,18.10
2013,08,11,16,50,18.10
2013,08,11,16,51,18.10
2013,08,11,16,52,18.20
2013,08,11,16,53,18.20
2013,08,11,16,54,18.20
2013,08,11,16,55,18.20
2013,08,11,16,56,18.30
2013,08,11,16,57,18.40
2013,08,11,16,58,18.50
2013,08,11,16,59,18.60
2013,08,11,17,00,18.70
2013,08,11,17,01,18.80
2013,08,11,17,02,18.90
2013,08,11,17,03,19.00
2013,08,11,17,04,19.10
2013,08,11,17,05,19.20
2013,08,11,17,06,19.30
2013,08,11,17,07,19.40
2013,08,11,17,08,19.50
2013,08,11,17,09,19.60
2013,08,11,17,10,19.60
2013,08,11,17,11,19.60
2013,08,11,17,12,19.50
2013,08,11,17,13,19.40
2013,08,11,17,14,19.30
2013,08,11,17,15,19.30
2013,08,11,17,16,19.30
2013,08,11,17,17,19.40
2013,08,11,17,18,19.40
2013,08,11,17,19,19.50
2013,08,11,17,20,19.60
2013,08,11,17,21,19.60
2013,08,11,17,22,19.60
2013,08,11,17,23,19.50
2013,08,11,17,24,19.40
2013,08,11,17,25,19.40
2013,08,11,17,26,19.40
2013,08,11,17,27,19.40
2013,08,11,17,28,19.30
2013,08,11,17,29,19.30
2013,08,11,17,30,19.30
2013,08,11,17,31,19.30
2013,08,11,17,32,19.20
2013,08,11,17,33,19.20
2013,08,11,17,34,19.00
2013,08,11,17,35,19.00
2013,08,11,17,36,18.90
2013,08,11,17,37,18.80
2013,08,11,17,38,18.70
2013,08,11,17,39,18.60
2013,08,11,17,40,18.50
2013,08,11,17,41,18.50
2013,08,11,17,42,18.40
2013,08,11,17,43,18.40
2013,08,11,17,44,18.40
2013,08,11,17,45,18.30
2013,08,11,17,46,18.30
2013,08,11,17,47,18.30
2013,08,11,17,48,18.20
2013,08,11,17,49,18.20
2013,08,11,17,50,18.20
2013,08,11,17,51,18.20
2013,08,11,17,52,18.20
2013,08,11,17,53,18.20
2013,08,11,17,54,18.20
2013,08,11,17,55,18.20
2013,08,11,17,56,18.20
2013,08,11,17,57,18.20
2013,08,11,17,58,18.20
